Regional Weather Roundup
Issued by NWS

Home | Current Version | Previous Version | Graphics & Text | Print | Product List | Glossary On
Versions: 1 2 3 4 5 6 7 8 9 10 11 12 13 14 15 16 17 18 19 20 21 22 23 24 25 26 27 28 29 30 31 32 33 34 35 36 37 38 39 40 41 42 43 44 45 46 47 48 49 50
000
ASUS45 KCYS 271510
RWRWY

WYOMING REGIONAL WEATHER ROUNDUP
NATIONAL WEATHER SERVICE CHEYENNE WY
800 AM MST TUE JAN 27 2015

NOTE:  "FAIR" INDICATES FEW OR NO CLOUDS BELOW 12,000 FEET
WITH NO SIGNIFICANT WEATHER AND/OR OBSTRUCTIONS TO VISIBILITY.

WYZ001-271600-
YELLOWSTONE NATIONAL PARK

CITY           SKY/WX    TMP DP  RH WIND       PRES   REMARKS
LK YELLOWSTONE   N/A      3  -1  83 CALM      30.24S
W YELLOWSTONE  NOT AVBL

$$
WYZ002>013-054>058-071-098>099-271600-
NORTHERN WYOMING

CITY           SKY/WX    TMP DP  RH WIND       PRES   REMARKS
JACKSON        FOG       10   9  92 CALM      30.27S VSB 1/4
CODY           FAIR      45  25  45 SW14      30.03S
GREYBULL       FAIR      13  11  92 W3        30.07S FOG
WORLAND        FAIR      12  10  92 SW8       30.06F WCI   0
SHERIDAN       FAIR      36  24  62 S3        29.97S
BUFFALO        FAIR      49  21  33 W8        30.02S
GILLETTE       FAIR      49  26  41 SW16      30.00S
HULETT           N/A    N/A N/A N/A MISG        N/A
NEWCASTLE      FAIR      32  28  86 NE5       30.07S WCI  27

$$
WYZ014>020-022>026-101>103-271600-
CENTRAL WYOMING

CITY           SKY/WX    TMP DP  RH WIND       PRES   REMARKS
BIG PINEY      FAIR      14  11  87 E3        30.26S
PINEDALE       FAIR      10   9  92 NW8       30.27S WCI  -1
DUBOIS         FAIR      34  18  51 NW22G28   30.15F WCI  22
LANDER         FAIR      26  22  84 CALM      30.13F
RIVERTON       FAIR      23  20  88 NW5       30.15S WCI  17
CASPER         FAIR      46  24  42 SW28G35   30.11S
DOUGLAS        FAIR      41  23  48 N8        30.11R

$$
WYZ021-027>030-104>119-271600-
SOUTHERN WYOMING

CITY           SKY/WX    TMP DP  RH WIND       PRES   REMARKS
EVANSTON       FAIR      36  23  59 S7        30.23S WCI  30
FORT BRIDGER   FAIR      30  27  91 W3        30.27S
ROCK SPRINGS   FAIR      29  23  78 W3        30.24S
DIXON          FAIR      19  16  88 CALM      30.34R
RAWLINS        FAIR      31  21  66 CALM      30.26S
SARATOGA       FAIR      32  23  69 SE8       30.30S WCI  25
LARAMIE        FAIR      39  20  46 SW15      30.25F WCI  31
CHEYENNE       FAIR      48  19  31 W13       30.16S
TORRINGTON     FAIR      30  25  81 S3        30.08S
PINE BLUFFS    FAIR      37  25  60 S8        30.14R WCI  31

$$


USA.gov is the U.S. government's official web portal to all federal, state and local government web resources and services.